Regional Weather Roundup
Issued by NWS

Home | Current Version | Previous Version | Text Only | Print | Product List | Glossary Off
Versions: 1 2 3 4 5 6 7 8 9 10 11 12 13 14 15 16 17 18 19 20 21 22 23 24 25 26 27 28 29 30 31 32 33 34 35 36 37 38 39 40 41 42 43 44 45 46 47 48 49 50

000
ASUS43 KIND 261610
RWRIN

WEATHER ROUNDUP FOR INDIANA
NATIONAL WEATHER SERVICE INDIANAPOLIS IN
1200 PM EDT MON JUN 26 2017

NOTE: "FAIR" INDICATES FEW OR NO CLOUDS BELOW 12,000 FEET WITH NO
SIGNIFICANT WEATHER AND/OR OBSTRUCTIONS TO VISIBILITY.

* - STATION DOES NOT REPORT WEATHER SUCH AS PRECIPITATION OR FOG.

+ - STATION NOT QUALITY CONTROLLED BY THE NATIONAL WEATHER SERVICE.
    USE DATA WITH CAUTION...ESPECIALLY DEWPOINT AND RELATIVE
    HUMIDITY OBSERVATIONS.

INZ001>003-010>013-019-020-261700-
NORTHWEST INDIANA

CITY           SKY/WX    TMP DP  RH WIND       PRES   REMARKS
GARY /AIRPORT/ PTSUNNY   72  39  30 W23       30.11F
KNOX *+        PTSUNNY   68  34  28 W14G24    30.11F
LA PORTE +     PTSUNNY   67  41  39 W7G17     30.11F
MICHIGAN CITY+ PTSUNNY   70  45  40 W12       30.11S
MONTICELLO +   MOSUNNY   70  45  40 W15       30.13F
VALPARAISO     MOSUNNY   72  45  37 W16       30.10F

$$

LMZ046-743>745-261700-
SOUTHERN LAKE MICHIGAN

STATION/POSITION TIME  TEMP    WIND        PRES    WAVE
                       AIR SEA DIR/SP/G            HT
                 (UTC) (F)     (DEG/KT/KT) (MB)    (FT)
BURNS HARBOR     1540   66     270/ 13/ 15 1019.6F
MICHIGAN CITY    1540   63     240/ 14/ 16   N/A
5NW MICH CITY    1550   64 66  260/ 12/ 14   N/A     2

$$

INZ004-005-014>016-021>024-261700-
NORTH CENTRAL INDIANA

CITY           SKY/WX    TMP DP  RH WIND       PRES   REMARKS
ELKHART        PTSUNNY   70  45  40 W12G17    30.09
GOSHEN         PTSUNNY   65  44  46 W14G23    30.10S
LOGANSPORT +   PTSUNNY   66  46  48 W13G24    30.14F
PERU/GRISSOM   MOSUNNY   69  50  50 W12       30.13R
ROCHESTER +    MOSUNNY   68  43  40 W13       30.13S
SOUTH BEND     MOSUNNY   68  44  42 W12G20    30.10S
WARSAW +       PTSUNNY   68  45  42 W16       30.11S

$$

INZ006>009-017-018-025>027-261700-
NORTHEAST INDIANA

CITY           SKY/WX    TMP DP  RH WIND       PRES   REMARKS
AUBURN +       PTSUNNY   68  45  42 SW10G18   30.10F
FORT WAYNE     PTSUNNY   68  46  45 W15       30.12S
HUNTINGTON +   PTSUNNY   68  48  50 NW8G18    30.13R
KENDALLVILLE + PTSUNNY   68  46  44 W15G21    30.10S

$$

INZ028-029-035-036-043>045-051>053-261700-
WEST CENTRAL INDIANA

CITY           SKY/WX    TMP DP  RH WIND       PRES   REMARKS
CRAWFORDSVL +  MOSUNNY   68  49  50 W12G21    30.16S
GREENCASTLE +  MOSUNNY   70  45  40 W5        30.18S
LAFAYETTE      PTSUNNY   69  49  48 W10       30.14F
TERRE HAUTE    SUNNY     73  48  41 W10       30.17F

$$

INZ030>032-037>040-046>048-054>057-064-065-261700-
CENTRAL INDIANA

CITY           SKY/WX    TMP DP  RH WIND       PRES   REMARKS
CP ATTERBURY + SUNNY     70  50  49 W14       30.18S
COLUMBUS       MOSUNNY   70  45  40 W12       30.17F
FRANKFORT +    PTSUNNY   72  49  44 W10G18    30.16F
GREENWOOD *+   MOSUNNY   70  47  45 W9G23     30.17S
INDIANAPOLIS   MOSUNNY   71  48  43 W18G24    30.16S
-EAGLE CREEK   MOSUNNY   71  48  43 W13G18    30.16R
KOKOMO +       PTSUNNY   70  49  47 W17       30.15R
MARION +       PTSUNNY   66  46  48 W15G23    30.15R
MT COMFORT *+  MOSUNNY   68  46  45 W13G18    30.16S
SHELBYVILLE    MOSUNNY   71  47  42 W14       30.16F
ZIONSVILLE +   MOSUNNY   68  48  48 W12       30.17S

$$

INZ033-034-041-042-049-050-058-059-261700-
EAST CENTRAL INDIANA

CITY           SKY/WX    TMP DP  RH WIND       PRES   REMARKS
MUNCIE         MOSUNNY   69  48  47 NW9G20    30.15S
RICHMOND +     MOSUNNY   66  45  45 NW16G23   30.16F HAZE

$$

INZ060-061-067>069-081>083-085>088-261700-
SOUTHWEST INDIANA

CITY           SKY/WX    TMP DP  RH WIND       PRES   REMARKS
EVANSVILLE     SUNNY     75  47  36 VRB5      30.21S
HUNTINGBURG *+ SUNNY     73  48  41 W7        30.20F
WASHINGTON +   SUNNY     73  47  40 W10G16    30.19S

$$

INZ062-063-066-070>080-084-089>092-261700-
SOUTH CENTRAL AND SOUTHEAST INDIANA

CITY           SKY/WX    TMP DP  RH WIND       PRES   REMARKS
BEDFORD +      MOSUNNY   72  46  40 NW6G16    30.18S
BLOOMINGTON    SUNNY     71  48  43 W8        30.17F
MADISON *+     SUNNY     72  45  37 W9G16     30.20F
NORTH VERNON + MOSUNNY   68  50  52 W9        30.18F
SEYMOUR +      MOSUNNY  N/A N/A N/A W10       30.18

$$





USA.gov is the U.S. government's official web portal to all federal, state and local government web resources and services.